Regional Weather Roundup
Issued by NWS

Home | Current Version | Previous Version | Text Only | Print | Product List | Glossary Off
Versions: 1 2 3 4 5 6 7 8 9 10 11 12 13 14 15 16 17 18 19 20 21 22 23 24 25 26 27 28 29 30 31 32 33 34 35 36 37 38 39 40 41 42 43 44 45 46 47 48 49 50

000
ASUS44 KMEG 110200
RWRTN
TENNESSEE HOURLY STATE WEATHER ROUNDUP
NATIONAL WEATHER SERVICE MEMPHIS TN
800 PM CST WED FEB 10 2016

TNZ002-004-019-021-049-052-054-088>092-110300-
WEST TENNESSEE

CITY           SKY/WX    TMP DP  RH WIND       PRES   REMARKS
MEMPHIS INTL   CLEAR     38  18  44 SE7       30.11F WCI  33
NWS MEMPHIS      N/A     36 N/A N/A MISG        N/A
JACKSON        CLOUDY    28  11  48 E6        30.15F WCI  22
DYERSBURG      CLOUDY    28  10  47 E8        30.18R WCI  20
UNION CITY     PTCLDY    25  12  58 E5        30.16F WCI  19
PARIS          CLOUDY    23  16  74 E3        30.18F
$$

TNZ008-025-027-028-033-062-065-066-110300-
NORTH MIDDLE TENNESSEE

CITY           SKY/WX    TMP DP  RH WIND       PRES   REMARKS
NASHVILLE      FLURRIES  26  20  77 NW3       30.22R
CLARKSVILLE    LGT SNOW  24  20  84 CALM      30.20S FOG
COOKEVILLE     MOCLDY    25  19  80 W5        30.15R WCI  19
CROSSVILLE     LGT SNOW  22  15  75 W8        30.10R WCI  12
$$

TNZ061-075-076-078-094-096-097-110300-
SOUTH MIDDLE TENNESSEE

CITY           SKY/WX    TMP DP  RH WIND       PRES   REMARKS
TULLAHOMA      CLOUDY    25  23  93 CALM      30.17S
WINCHESTER     CLOUDY    27  19  74 N6        30.18S WCI  20
MCMINNVILLE    PTCLDY    23  21  93 W6        30.17R WCI  16
COLUMBIA       CLOUDY    27  25  93 CALM      30.18S
SHELBYVILLE    CLOUDY    27  23  86 W3        30.20S
$$

TNZ017-018-042-046-047-110300-
NORTHEAST TENNESSEE

CITY           SKY/WX    TMP DP  RH WIND       PRES   REMARKS
TRI CITIES     CLOUDY    20   6  55 VRB5      30.08R WCI  13
$$

TNZ012-013-036-069-073-074-110300-
CENTRAL EAST TENNESSEE

CITY           SKY/WX    TMP DP  RH WIND       PRES   REMARKS
KNOXVILLE      CLOUDY    27   7  42 W14       30.14R WCI  16
OAK RIDGE      CLOUDY    27   8  44 W8        30.16R WCI  19
GATLINBURG     CLOUDY    25   5  42 W7        30.12R WCI  17
$$

TNZ083-085-099-110300-
SOUTHEAST TENNESSEE

CITY           SKY/WX    TMP DP  RH WIND       PRES   REMARKS
CHATTANOOGA    FLURRIES  30  17  58 SW8       30.19R WCI  22
$$

SKY/WX REPORTED AS FAIR MEANS FEW OR NO CLOUDS BELOW
12 THOUSAND FEET.




USA.gov is the U.S. government's official web portal to all federal, state and local government web resources and services.